User: anonymous   Login
Location: Unspecified
(0.0000°N, 0.0000°E)
Time: 10:50:21
(UTC+00:00)
Language:

PSAT 2 - Orbit

View from above orbital plane
View from above orbital plane
View from above satellite
View from above satellite

Ground track
Ground track

The orbit data is extracted from the following two-line orbital elements,

1 44354U 19036R   21342.53401092  .00016929  00000-0  20260-3 0  9995
2 44354  28.5278  40.7420 0296582  12.8372 347.9584 15.21169447135421
Epoch (UTC): 08 December 2021 12:48:58
Eccentricity: 0.0296582
inclination: 28.5278°
perigee height: 298 km
apogee height: 706 km
right ascension of ascending node: 40.7420°
argument of perigee: 12.8372°
revolutions per day: 15.21169447
mean anomaly at epoch: 347.9584°
orbit number at epoch: 13542

The dashed part of the orbit path shows where the satellite is in the earth's shadow,  

DLR